Location: Arbon
(43.0005°N, 0.7472°E)
Time: 13:05:15
(UTC+00:00)

Vanguard 1 - Pass Details

Date: 27 November 2020
Orbit: 648 x 3834 km, 34.3° (Epoch: 23 January)

Event Time Altitude Azimuth Distance (km) Brightness Sun altitude
Rises 12:34:15 0° 273° (W) 6,043 14.2 24.7°
Reaches altitude 10° 12:39:20 10° 259° (WSW) 5,531 14.3 24.5°
Maximum altitude 12:50:43 21° 218° (SW) 5,481 15.5 24.0°
Drops below altitude 10° 13:04:52 10° 179° (S) 6,901 15.8 23.1°
Sets 13:12:45 0° 166° (SSE) 7,942 15.5 22.6°
